[[{"header":{"parameterUnit":"m.s-1","parameterCategory":1,"la1":30.2991,"la2":30.254,"lo1":-89.0895,"lo2":-89.0444,"dy":0.0017,"dx":0.0017,"nx":28,"ny":28,"refTime":"2024-09-28T21:00:00:Z","depth":0,"parameterNumber":2,"parameterNumberName":"U-component_of_WINDS"},"data":[0,0,0,0,0,0,0,0,0,0,0,0,0,0,0,0,0,0,0,0,0,0,0,0,0,0,0,0,0,0,0,0,0,0,0,0,0,0,0,0,0,0,0,0,0,0,0,0,0,0,0,0,0,0,0,0,0,0,1.7087,1.7089,0,1.7202,1.7203,1.7204,1.7222,1.7221,1.722,1.7219,1.734,1.7344,1.7348,0,0,0,0,0,0,0,0,0,0,0,0,0,1.6891,1.6895,1.7087,1.7089,1.709,1.7201,1.7203,1.7205,1.7222,1.7221,1.722,1.7219,1.7339,1.7343,1.7348,0,0,0,0,0,0,0,0,0,0,0,0,0,1.6988,1.6896,1.7087,1.7112,1.7116,1.7201,1.7203,1.7205,1.7223,1.7221,1.7219,1.7218,1.7337,1.7343,1.7349,1.7418,0,0,1.7368,1.7371,0,0,0,0,0,0,0,0,1.6982,1.6995,1.7107,1.7111,1.7115,1.7196,1.7178,1.7277,1.7223,1.7182,1.7219,1.7217,1.7294,1.7303,1.7328,1.7424,1.7429,1.7369,1.7373,1.7375,1.7377,0,0,0,0,0,0,0,1.6976,1.699,1.7133,1.7109,1.7114,1.712,1.7132,1.7197,1.7245,1.7186,1.7187,1.72,1.7295,1.7322,1.7331,1.7431,1.7369,1.7374,1.7378,1.738,1.7594,1.7596,0,0,0,0,0,0,1.6964,1.6985,1.7129,1.7136,1.7043,1.7125,1.7138,1.7171,1.7244,1.7254,1.7201,1.7201,1.7312,1.7324,1.7335,1.7423,1.7375,1.7381,1.7385,1.7592,1.7594,1.7596,0,0,0,0,0,0,1.6959,1.6976,1.7124,1.7061,1.708,1.713,1.7167,1.7175,1.7201,1.7256,1.7266,1.7219,1.7311,1.7327,1.7398,1.7427,1.7384,1.739,1.759,1.7593,1.7595,1.7598,0,0,0,0,0,0,1.6954,1.6975,1.7,1.7061,1.7083,1.7183,1.7169,1.7178,1.7211,1.7212,1.7276,1.7285,1.7311,1.7389,1.7404,1.7435,1.7394,1.7587,1.7591,1.7594,1.7595,1.76,1.7605,0,0,0,0,0,1.6947,1.6996,1.7001,1.7018,1.7115,1.7185,1.7198,1.7226,1.7214,1.724,1.7277,1.7283,1.7422,1.7396,1.7414,1.7447,1.7585,1.759,1.7594,1.7593,1.7599,1.7604,0,0,0,0,0,0,1.6937,1.7004,1.701,1.7081,1.7127,1.7187,1.7222,1.7231,1.7282,1.728,1.7315,1.7329,1.74,1.7431,1.74,1.752,1.7503,1.7511,1.7496,1.7503,1.7507,1.7498,1.74,0,0,0,0,0,1.6943,1.6991,1.7049,1.7105,1.7128,1.7171,1.7202,1.722,1.727,1.729,1.7331,1.738,1.7436,1.7471,1.7525,1.7601,1.7616,1.7633,1.7637,1.7641,1.7647,1.7693,1.7701,1.761,1.761,1.761,0,0,1.6955,1.6998,1.7027,1.7105,1.7142,1.7194,1.7187,1.7242,1.7281,1.7299,1.7368,1.7401,1.7459,1.7533,1.7568,1.7561,1.7676,1.7647,1.7649,1.7653,1.7698,1.7707,1.7714,1.7613,1.7613,1.7612,0,0,1.7005,1.7042,1.7094,1.7133,1.719,1.7219,1.7232,1.7292,1.7314,1.7385,1.74,1.7449,1.7543,1.7584,1.7617,1.7687,1.7696,1.7704,1.7728,1.7772,1.7779,1.7786,1.7812,1.7821,1.7711,1.7711,1.7711,0,1.7013,1.709,1.712,1.7175,1.721,1.7228,1.7283,1.7319,1.7392,1.7417,1.7408,1.7528,1.7568,1.7654,1.7671,1.7697,1.7715,1.7696,1.7776,1.7783,1.7789,1.7815,1.7825,1.7711,1.7711,1.7711,1.7711,0,1.7099,1.7153,1.7189,1.7258,1.7297,1.7352,1.7392,1.7429,1.7445,1.7476,1.755,1.7599,1.7664,1.7686,1.7702,1.7776,1.777,1.7768,1.7752,1.7798,1.7823,1.7833,1.7712,1.7712,1.7712,1.7712,0,0,1.7142,1.723,1.7242,1.7275,1.7342,1.7385,1.7443,1.7506,1.7538,1.7589,1.7639,1.772,1.772,1.7757,1.7779,1.7818,1.7873,1.7812,1.7814,1.7822,1.7959,1.796,1.797,1.788,1.7881,1.7883,1.7955,0,1.72,1.73,1.733,1.7415,1.7467,1.7488,1.7538,1.7586,1.7618,1.7668,1.7704,1.7761,1.7755,1.7779,1.7818,1.7857,1.7901,1.7853,1.7928,1.7931,1.7912,1.7983,1.7983,1.8048,1.7964,1.7966,1.7967,0,1.7279,1.7332,1.7422,1.7485,1.7508,1.7552,1.7614,1.7662,1.7718,1.7739,1.7783,1.7802,1.7866,1.7848,1.7937,1.7904,1.7938,1.7963,1.7966,1.7973,1.7951,1.7993,1.8069,1.8079,1.7983,1.7981,1.798,0,1.7303,1.7396,1.7462,1.749,1.7565,1.7597,1.763,1.7685,1.7722,1.7778,1.7803,1.7865,1.79,1.7949,1.7986,1.7969,1.8074,1.8058,1.8094,1.8093,1.8114,1.8112,1.8197,1.8136,1.8136,1.8136,1.8135,0,1.7363,1.7418,1.7474,1.7515,1.7578,1.7614,1.7677,1.7711,1.7761,1.7811,1.7834,1.7881,1.7927,1.7981,1.8011,1.8082,1.8097,1.8118,1.8125,1.8115,1.8113,1.8137,1.8133,1.8138,1.8138,1.8137,1.8137,0,1.7399,1.7438,1.7513,1.7579,1.7597,1.7641,1.7699,1.7741,1.7775,1.7838,1.7855,1.7909,1.7974,1.8017,1.81,1.812,1.8198,1.8204,1.8179,1.8182,1.8216,1.8213,1.8319,1.8336,1.8264,1.8264,1.8265,0,1.7434,1.7477,1.7548,1.7583,1.7616,1.7672,1.771,1.775,1.7789,1.7859,1.7894,1.796,1.8015,1.812,1.8168,1.8233,1.8241,1.8274,1.825,1.824,1.8242,1.8239,1.8244,1.8277,1.8277,1.8278,1.8278,0,1.7493,1.7512,1.7565,1.7628,1.7673,1.7724,1.7775,1.7803,1.7852,1.7896,1.7963,1.8006,1.8092,1.8159,1.8229,1.8266,1.8281,1.8286,1.8298,1.8288,1.8272,1.8282,1.8189,1.8283,1.8282,1.8282,1.8282,1.8281,1.753,1.757,1.7627,1.7688,1.7731,1.7779,1.7822,1.7863,1.7918,1.799,1.8012,1.8082,1.8142,1.8237,1.8276,1.8334,1.833,1.8347,1.8351,1.8355,1.8356,1.8263,1.8347,1.8347,1.8347,1.8347,1.8347,0,1.7591,1.763,1.7685,1.7756,1.7805,1.7815,1.7874,1.7914,1.7975,1.8029,1.8084,1.8162,1.8229,1.8283,1.8352,1.8388,1.8397,1.8405,1.8402,1.8411,1.8355,1.8338,1.8397,1.8396,1.8396,1.8396,1.8396,1.8396,1.7628,1.7697,1.7723,1.7815,1.7854,1.7922,1.7955,1.8001,1.8044,1.8131,1.8186,1.8221,1.8276,1.835,1.8413,1.8427,1.8452,1.8458,1.8475,1.842,1.8415,1.8409,1.8394,1.8463,1.8463,1.8527,1.8527,1.8528]},{"header":{"parameterUnit":"m.s-1","parameterCategory":1,"la1":30.2991,"la2":30.254,"lo1":-89.0895,"lo2":-89.0444,"dy":0.0017,"dx":0.0017,"nx":28,"ny":28,"refTime":"2024-09-28T21:00:00:Z","depth":0,"parameterNumber":3,"parameterNumberName":"V-component_of_WINDS"},"data":[0,0,0,0,0,0,0,0,0,0,0,0,0,0,0,0,0,0,0,0,0,0,0,0,0,0,0,0,0,0,0,0,0,0,0,0,0,0,0,0,0,0,0,0,0,0,0,0,0,0,0,0,0,0,0,0,0,0,2.455,2.4553,0,2.4783,2.4786,2.4788,2.4864,2.4863,2.4862,2.4862,2.5098,2.5105,2.5112,0,0,0,0,0,0,0,0,0,0,0,0,0,2.4172,2.4178,2.455,2.4553,2.4556,2.4782,2.4786,2.4789,2.4865,2.4863,2.4862,2.4861,2.5096,2.5104,2.5113,0,0,0,0,0,0,0,0,0,0,0,0,0,2.4363,2.418,2.455,2.4621,2.463,2.4782,2.4786,2.479,2.4865,2.4863,2.4862,2.486,2.5093,2.5103,2.5114,2.5211,0,0,2.5147,2.5152,0,0,0,0,0,0,0,0,2.4352,2.4377,2.4608,2.4617,2.4627,2.4793,2.4739,2.4931,2.4865,2.4776,2.4861,2.486,2.4998,2.5016,2.5063,2.5222,2.5233,2.5148,2.5155,2.516,2.5163,0,0,0,0,0,0,0,2.4339,2.4367,2.4642,2.4611,2.4623,2.4642,2.4667,2.4776,2.4892,2.4783,2.4789,2.4816,2.5003,2.5053,2.5069,2.5236,2.5148,2.5158,2.5164,2.5169,2.5489,2.5491,0,0,0,0,0,0,2.4314,2.4356,2.4635,2.4649,2.4483,2.465,2.4678,2.4741,2.4891,2.4913,2.4817,2.4819,2.5035,2.5057,2.5078,2.5203,2.5159,2.517,2.5176,2.5487,2.549,2.5492,0,0,0,0,0,0,2.4305,2.4338,2.4626,2.4504,2.4543,2.4658,2.4728,2.4747,2.4797,2.4917,2.4938,2.4847,2.5034,2.5063,2.5178,2.5213,2.5175,2.5184,2.5485,2.5488,2.5491,2.5453,0,0,0,0,0,0,2.4294,2.4334,2.4372,2.4505,2.4549,2.4722,2.473,2.4752,2.4815,2.482,2.495,2.497,2.5035,2.5162,2.5189,2.5227,2.5193,2.5482,2.5486,2.549,2.5452,2.5455,2.5457,0,0,0,0,0,2.428,2.4352,2.4374,2.4407,2.4599,2.4724,2.4749,2.4822,2.4818,2.4857,2.4935,2.4966,2.5204,2.5173,2.5204,2.5246,2.548,2.5485,2.5489,2.5451,2.5454,2.5457,0,0,0,0,0,0,2.4219,2.437,2.4397,2.4513,2.4605,2.4736,2.4788,2.4823,2.4918,2.4918,2.5005,2.5034,2.5143,2.5206,2.5169,2.5349,2.5344,2.5355,2.5304,2.5308,2.531,2.5293,2.5202,0,0,0,0,0,2.422,2.4309,2.4436,2.4526,2.4571,2.4671,2.4729,2.4778,2.4876,2.4915,2.5001,2.5095,2.5192,2.5253,2.5348,2.5462,2.5492,2.5506,2.5508,2.551,2.5518,2.5585,2.5593,2.5506,2.5506,2.5506,0,0,2.4221,2.4314,2.4365,2.4517,2.4594,2.4684,2.4704,2.4798,2.4866,2.493,2.5045,2.5111,2.5222,2.5337,2.5392,2.5393,2.5549,2.5515,2.5516,2.5524,2.559,2.5598,2.5605,2.551,2.5509,2.5508,0,0,2.4269,2.4349,2.4434,2.4511,2.4628,2.4695,2.4715,2.4842,2.4889,2.5005,2.5055,2.5138,2.5301,2.5379,2.544,2.552,2.5553,2.5548,2.5561,2.5625,2.5632,2.5639,2.5669,2.5678,2.5556,2.5556,2.5556,0,2.4256,2.4395,2.4473,2.4566,2.4632,2.4694,2.4781,2.4852,2.4994,2.5038,2.5037,2.5245,2.5324,2.5459,2.5479,2.5525,2.5552,2.5534,2.5625,2.5632,2.5639,2.5669,2.568,2.5555,2.5555,2.5555,2.5555,0,2.4373,2.4469,2.4523,2.466,2.4732,2.4821,2.4913,2.4976,2.502,2.5086,2.5205,2.5303,2.5419,2.5455,2.5497,2.5597,2.5594,2.5608,2.5605,2.5645,2.5675,2.5686,2.5553,2.5554,2.5554,2.5554,0,0,2.4389,2.4569,2.4588,2.4652,2.4786,2.4862,2.4954,2.507,2.5123,2.5219,2.5299,2.5437,2.5451,2.552,2.5572,2.5628,2.5688,2.5635,2.5639,2.5643,2.5805,2.5795,2.5807,2.571,2.5713,2.5715,2.5797,0,2.4456,2.4625,2.4699,2.4834,2.4925,2.4986,2.5067,2.5158,2.5224,2.531,2.5382,2.5479,2.5489,2.5532,2.559,2.5668,2.5721,2.5663,2.5787,2.579,2.5758,2.5822,2.5811,2.5884,2.5808,2.581,2.5812,0,2.4556,2.4654,2.4799,2.4925,2.4965,2.5037,2.515,2.5231,2.5336,2.538,2.5458,2.5508,2.5608,2.5598,2.5738,2.5696,2.5752,2.5798,2.5803,2.5818,2.5804,2.584,2.5909,2.592,2.583,2.5829,2.5828,0,2.4555,2.4723,2.4832,2.4884,2.5033,2.5082,2.5146,2.5251,2.5316,2.5414,2.5458,2.5566,2.5625,2.5708,2.5786,2.5771,2.5919,2.5915,2.5959,2.5957,2.5988,2.5985,2.6068,2.6022,2.6021,2.6021,2.6021,0,2.4622,2.4709,2.4834,2.49,2.5,2.5084,2.518,2.5249,2.5341,2.5423,2.5482,2.5558,2.5656,2.5744,2.5805,2.5913,2.5939,2.5978,2.5994,2.5974,2.5969,2.6012,2.6009,2.6024,2.6023,2.6023,2.6022,0,2.4638,2.4724,2.4848,2.4979,2.5015,2.5082,2.5195,2.5263,2.5331,2.5434,2.5463,2.5571,2.5678,2.5764,2.5904,2.5945,2.6059,2.6076,2.6024,2.6032,2.6072,2.6068,2.6186,2.6206,2.6144,2.6145,2.6145,0,2.4675,2.4744,2.4883,2.4943,2.5007,2.5102,2.5169,2.5255,2.5323,2.545,2.5502,2.5614,2.5708,2.5877,2.5967,2.6075,2.6096,2.613,2.6112,2.6091,2.6098,2.6094,2.6102,2.6131,2.6132,2.6132,2.6132,0,2.4733,2.4774,2.4869,2.498,2.5059,2.5151,2.5243,2.5289,2.5392,2.5465,2.5576,2.5649,2.5793,2.5903,2.6021,2.6087,2.6128,2.6137,2.6153,2.6134,2.6102,2.6122,2.603,2.6134,2.6134,2.6134,2.6134,2.6133,2.4762,2.4827,2.4936,2.5041,2.512,2.5206,2.5277,2.5355,2.5449,2.5574,2.5619,2.5733,2.5839,2.6001,2.6068,2.6159,2.6163,2.6186,2.6192,2.6197,2.6195,2.6086,2.6181,2.6181,2.6181,2.6181,2.6181,0,2.4825,2.4899,2.4994,2.5123,2.5206,2.5237,2.5342,2.5409,2.5509,2.5605,2.5697,2.5825,2.5934,2.6033,2.6147,2.62,2.6222,2.6227,2.6225,2.624,2.6185,2.616,2.6208,2.6208,2.6208,2.6208,2.6208,2.6208,2.4867,2.4979,2.5032,2.5184,2.5257,2.5371,2.5428,2.5508,2.5585,2.5726,2.5817,2.5882,2.598,2.6101,2.6202,2.6229,2.6268,2.6269,2.6301,2.6247,2.6244,2.624,2.6217,2.6277,2.6277,2.6349,2.635,2.635]}]]